Retour au catalogue

SL-19 DEB

ActifUNKNOWN
NORAD 23488·DEBRIS·🇷🇺 Russia

Lancé Dec 26, 1994 depuis Baikonur Cosmodrome

Loading…

Prochains Passages (prochaines 24 heures)

TLE

FraisSource: Space-Track

Époque: Sep 14, 2026, 13:30 UTC

1 23488U 94085L   26257.56286422 -.00001308  00000-0 -34248-1 0  9994
2 23488  65.0012 293.8871 0214220  98.1317  53.0505 11.29709788305029

Suivez SL-19 DEB en temps réel avec AllMySat

Download on the App Store